EA8CHC Sevilla ES current weather conditions

sailwx.info

Wind from 020 at 1 knots gusting 6

Air temperature 25.6° C
Dewpoint 9.0° C

Last reported at 2015-Mar-29 11:47 UTC.
Time now 2015-Mar-29 12:26 UTC

Location: N 37°26' W 006°03'.
View on Google Maps.

See reports from other nearby stations

  
Tides and Currents Weather Stations Pressure Air Temp Water Temp Dewpoint Dewpoint Depression Visibility Wind Speed Wind Dir Waves Ship Positions
date/time (UTC)wind fromknots sea level pressurealtimeterstation pressurevisibilityair tempwater tempwave heightnotes
2015-Mar-29 11:47 020 1 gusting 6 25.6
2015-Mar-29 11:42 25.0
2015-Mar-29 11:37 009 1 gusting 5 25.0
2015-Mar-29 11:32 051 1 gusting 4 25.0
2015-Mar-29 11:27 022 0 gusting 4 24.4
2015-Mar-29 11:22 051 0 gusting 4 24.4
2015-Mar-29 11:17 051 1 gusting 4 24.4
2015-Mar-29 11:12 101 0 gusting 4 24.4
2015-Mar-29 11:07 108 0 gusting 4 24.4
2015-Mar-29 11:02 005 0 gusting 4 24.4
2015-Mar-29 10:57 089 0 gusting 4 23.9
2015-Mar-29 10:52 099 0 gusting 2 24.4
2015-Mar-29 10:47 286 0 gusting 2 24.4
2015-Mar-29 10:42 286 23.9
2015-Mar-29 10:37 286 23.9
2015-Mar-29 10:32 286 23.3
2015-Mar-29 10:27 286 22.8
2015-Mar-29 10:22 286 0 gusting 2 22.8
2015-Mar-29 10:17 286 0 gusting 2 22.2
2015-Mar-29 10:12 286 0 gusting 2 22.2
2015-Mar-29 10:07 286 22.2
2015-Mar-29 10:02 286 21.7
2015-Mar-29 09:57 286 0 gusting 3 21.7
2015-Mar-29 09:52 286 0 gusting 3 21.7
2015-Mar-29 09:47 286 22.2
2015-Mar-29 09:42 286 21.7
2015-Mar-29 09:37 286 21.1
2015-Mar-29 09:32 286 0 gusting 3 21.1
2015-Mar-29 09:27 286 0 gusting 3 20.6
2015-Mar-29 09:22 286 20.6
2015-Mar-29 09:17 286 0 gusting 3 20.0
2015-Mar-29 09:12 286 0 gusting 2 19.4
2015-Mar-29 09:07 286 0 gusting 2 19.4
2015-Mar-29 09:02 286 19.4
2015-Mar-29 08:57 286 19.4
2015-Mar-29 08:52 286 0 gusting 2 19.4
2015-Mar-29 08:47 286 0 gusting 2 19.4
2015-Mar-29 08:42 286 19.4
2015-Mar-29 08:37 286 18.9
2015-Mar-29 08:32 286 18.3
2015-Mar-29 08:27 286 18.3
2015-Mar-29 08:22 286 0 gusting 2 17.8
2015-Mar-29 08:17 286 0 gusting 2 17.2
2015-Mar-29 08:12 286 0 gusting 3 17.2
2015-Mar-29 08:07 286 0 gusting 3 16.7
2015-Mar-29 08:02 286 0 gusting 4 16.7
2015-Mar-29 07:57 286 1 gusting 4 16.1
2015-Mar-29 07:52 286 2 gusting 4 15.6
2015-Mar-29 07:47 286 2 gusting 4 15.6
2015-Mar-29 07:42 286 1 gusting 2 15.6
2015-Mar-29 07:37 286 15.6
2015-Mar-29 07:32 286 15.6
2015-Mar-29 07:27 286 0 gusting 3 15.6
2015-Mar-29 07:22 286 0 gusting 5 15.6
2015-Mar-29 07:17 286 2 gusting 5 15.6
2015-Mar-29 07:12 286 3 gusting 6 15.0
2015-Mar-29 07:07 288 3 gusting 6 15.0
2015-Mar-29 07:02 289 3 gusting 6 15.0
2015-Mar-29 06:57 294 3 gusting 6 15.0
2015-Mar-29 06:52 287 2 gusting 5 15.0
2015-Mar-29 06:47 298 1 gusting 5 15.0
2015-Mar-29 06:42 297 2 gusting 6 15.0
2015-Mar-29 06:37 289 4 gusting 6 15.0
2015-Mar-29 06:32 284 4 gusting 5 15.0
2015-Mar-29 06:27 281 4 gusting 5 15.0
2015-Mar-29 06:22 289 4 gusting 5 15.0
2015-Mar-29 06:17 298 4 gusting 5 15.0
2015-Mar-29 06:12 288 4 gusting 4 14.4
2015-Mar-29 06:07 298 3 gusting 4 14.4
2015-Mar-29 06:02 298 1 gusting 4 13.9
2015-Mar-29 05:57 298 14.4
2015-Mar-29 05:52 298 1 gusting 5 14.4
2015-Mar-29 05:47 298 3 gusting 5 14.4
2015-Mar-29 05:42 294 4 gusting 5 14.4
2015-Mar-29 05:37 286 4 gusting 5 14.4
2015-Mar-29 05:32 290 3 gusting 5 14.4
2015-Mar-29 05:27 301 3 gusting 5 14.4
2015-Mar-29 05:22 304 3 gusting 4 14.4
2015-Mar-29 05:17 304 2 gusting 4 14.4
2015-Mar-29 05:12 304 2 gusting 3 14.4
2015-Mar-29 05:07 304 1 gusting 3 14.4
2015-Mar-29 05:02 304 0 gusting 5 15.0
2015-Mar-29 04:57 304 15.0
2015-Mar-29 04:52 304 1 gusting 6 15.0
2015-Mar-29 04:47 304 2 gusting 6 15.0
2015-Mar-29 04:42 304 3 gusting 8 15.6
2015-Mar-29 04:37 312 3 gusting 8 15.6
2015-Mar-29 04:32 296 4 gusting 8 16.1
2015-Mar-29 04:27 282 5 gusting 8 16.1
2015-Mar-29 04:22 295 5 gusting 8 16.7
2015-Mar-29 04:17 333 5 gusting 8 16.7
2015-Mar-29 04:12 304 4 gusting 6 16.1
2015-Mar-29 04:07 305 4 gusting 6 15.6
2015-Mar-29 04:02 288 4 gusting 6 15.6
2015-Mar-29 03:57 286 4 gusting 6 15.0
2015-Mar-29 03:52 289 4 gusting 6 15.0
2015-Mar-29 03:47 284 4 gusting 6 15.0
2015-Mar-29 03:42 304 4 gusting 5 14.4
2015-Mar-29 03:37 290 3 gusting 5 14.4
2015-Mar-29 03:32 290 3 gusting 5 15.0
2015-Mar-29 03:27 290 3 gusting 5 15.0
2015-Mar-29 03:22 290 3 gusting 3 15.6
2015-Mar-29 03:17 290 1 gusting 3 15.6
2015-Mar-29 03:12 290 15.6
2015-Mar-29 03:07 290 15.6
2015-Mar-29 03:02 290 0 gusting 2 15.6
2015-Mar-29 02:57 290 0 gusting 2 15.6
2015-Mar-29 02:52 290 15.0
2015-Mar-29 02:47 290 0 gusting 2 15.0
2015-Mar-29 02:42 290 0 gusting 5 15.0
2015-Mar-29 02:37 290 0 gusting 5 15.0
2015-Mar-29 02:32 290 1 gusting 6 15.0
2015-Mar-29 02:27 293 2 gusting 6 15.0
2015-Mar-29 02:22 297 3 gusting 6 15.0
2015-Mar-29 02:17 294 4 gusting 6 15.0
2015-Mar-29 02:12 291 4 gusting 5 15.0
2015-Mar-29 02:07 285 3 gusting 5 15.0
2015-Mar-29 02:02 312 2 gusting 5 15.0
2015-Mar-29 01:57 325 2 gusting 5 15.6
2015-Mar-29 01:52 315 2 gusting 5 16.1
2015-Mar-29 01:47 335 2 gusting 5 16.7
2015-Mar-29 01:42 314 2 gusting 5 17.2
2015-Mar-29 01:37 315 1 gusting 5 17.2
2015-Mar-29 01:32 315 2 gusting 6 17.8
2015-Mar-29 01:27 315 4 gusting 6 17.8
2015-Mar-29 01:22 298 4 gusting 6 17.8
2015-Mar-29 01:17 301 4 gusting 6 17.8
2015-Mar-29 01:12 300 3 gusting 6 17.8
2015-Mar-29 01:07 300 4 gusting 6 17.8
2015-Mar-29 01:02 280 4 gusting 6 18.3
2015-Mar-29 00:57 304 4 gusting 6 18.3
2015-Mar-29 00:52 284 4 gusting 6 17.8
2015-Mar-29 00:47 271 4 gusting 6 17.8
2015-Mar-29 00:42 285 4 gusting 6 17.2
2015-Mar-29 00:37 294 5 gusting 6 17.2
2015-Mar-29 00:32 297 4 gusting 6 17.8
2015-Mar-29 00:27 289 4 gusting 6 18.3
2015-Mar-29 00:22 304 4 gusting 7 18.9
2015-Mar-29 00:17 305 4 gusting 7 19.4
2015-Mar-29 00:12 324 5 gusting 7 19.4
2015-Mar-29 00:07 303 5 gusting 7 20.0
2015-Mar-29 00:02 290 5 gusting 7 19.4
2015-Mar-28 23:57 290 5 gusting 7 19.4
2015-Mar-28 23:52 288 4 gusting 7 18.9
2015-Mar-28 23:47 288 4 gusting 7 18.9
2015-Mar-28 23:42 289 4 gusting 7 18.9
2015-Mar-28 23:37 292 4 gusting 7 19.4
2015-Mar-28 23:32 294 5 gusting 7 20.0
2015-Mar-28 23:27 282 5 gusting 7 20.0
2015-Mar-28 23:22 259 5 gusting 6 20.0
2015-Mar-28 23:17 284 5 gusting 6 19.4
2015-Mar-28 23:12 277 5 gusting 6 19.4
2015-Mar-28 23:07 277 4 gusting 6 19.4
2015-Mar-28 23:02 275 4 gusting 6 18.9
2015-Mar-28 22:57 284 4 gusting 6 18.9
2015-Mar-28 22:52 279 4 gusting 6 18.3
2015-Mar-28 22:47 300 4 gusting 6 18.9
2015-Mar-28 22:42 292 5 gusting 9 18.9
2015-Mar-28 22:37 294 5 gusting 9 19.4
2015-Mar-28 22:32 301 6 gusting 9 20.0
2015-Mar-28 22:27 310 6 gusting 9 20.0
2015-Mar-28 22:22 290 6 gusting 8 20.0
2015-Mar-28 22:17 288 5 gusting 8 19.4
2015-Mar-28 22:12 304 6 gusting 8 18.9
2015-Mar-28 22:07 319 6 gusting 8 18.9
2015-Mar-28 22:02 307 5 gusting 7 18.9
2015-Mar-28 21:57 304 5 gusting 7 18.9
2015-Mar-28 21:52 285 4 gusting 6 18.9
2015-Mar-28 21:47 304 3 gusting 6 18.9
2015-Mar-28 21:42 294 3 gusting 5 19.4
2015-Mar-28 21:37 306 3 gusting 5 20.0
2015-Mar-28 21:32 277 3 gusting 6 20.6
2015-Mar-28 21:27 297 3 gusting 6 20.6
2015-Mar-28 21:22 292 3 gusting 6 21.1
2015-Mar-28 21:17 268 3 gusting 6 21.7
2015-Mar-28 21:12 282 4 gusting 6 22.2
2015-Mar-28 21:07 300 4 gusting 6 22.2
2015-Mar-28 21:02 275 4 gusting 6 22.2
2015-Mar-28 20:57 274 4 gusting 6 22.2
2015-Mar-28 20:52 283 4 gusting 5 22.2
2015-Mar-28 20:47 276 3 gusting 5 22.2
2015-Mar-28 20:42 281 3 gusting 5 22.2
2015-Mar-28 20:37 277 3 gusting 5 22.2
2015-Mar-28 20:32 277 3 gusting 6 22.2
2015-Mar-28 20:27 299 4 gusting 6 22.8
2015-Mar-28 20:22 305 3 gusting 5 22.8
2015-Mar-28 20:17 286 3 gusting 5 23.3
2015-Mar-28 20:12 293 3 gusting 4 23.3
2015-Mar-28 20:07 286 2 gusting 4 23.9
2015-Mar-28 20:02 307 1 gusting 2 24.4
2015-Mar-28 19:57 009 0 gusting 2 24.4
2015-Mar-28 19:52 009 0 gusting 4 24.4
2015-Mar-28 19:47 009 0 gusting 4 25.0
2015-Mar-28 19:42 009 2 gusting 5 25.0
2015-Mar-28 19:37 009 3 gusting 5 25.6
2015-Mar-28 19:32 013 3 gusting 5 25.6
2015-Mar-28 19:27 25.6
2015-Mar-28 19:22 25.6
2015-Mar-28 19:17 26.1
2015-Mar-28 19:12 005 4 gusting 8 26.1
2015-Mar-28 19:07 355 4 gusting 8 26.1
2015-Mar-28 19:02 341 4 gusting 8 26.7
2015-Mar-28 18:57 347 3 gusting 8 26.7
2015-Mar-28 18:52 355 1 gusting 4 26.7
2015-Mar-28 18:47 335 0 gusting 4 26.7
2015-Mar-28 18:42 335 1 gusting 5 26.7
2015-Mar-28 18:37 317 1 gusting 5 27.2
2015-Mar-28 18:32 350 1 gusting 3 27.2
2015-Mar-28 18:27 273 0 gusting 3 27.8
2015-Mar-28 18:22 273 28.3
2015-Mar-28 18:17 273 28.3
2015-Mar-28 18:12 273 28.3
2015-Mar-28 18:07 273 28.3
2015-Mar-28 18:02 273 28.9
2015-Mar-28 17:57 273 28.9
2015-Mar-28 17:52 273 0 gusting 3 28.3
2015-Mar-28 17:47 273 0 gusting 3 28.3
2015-Mar-28 17:42 273 0 gusting 6 28.3
2015-Mar-28 17:37 279 1 gusting 6 28.3
2015-Mar-28 17:32 286 3 gusting 6 28.3
2015-Mar-28 17:27 294 3 gusting 6 28.3
2015-Mar-28 17:22 279 2 gusting 5 28.3
2015-Mar-28 17:17 282 1 gusting 5 28.9
2015-Mar-28 17:12 258 0 gusting 5 28.9
2015-Mar-28 17:07 246 1 gusting 5 28.9
2015-Mar-28 17:02 233 2 gusting 6 28.9
2015-Mar-28 16:57 224 2 gusting 6 28.9
2015-Mar-28 16:52 244 2 gusting 6 28.9
2015-Mar-28 16:47 233 3 gusting 6 28.9
2015-Mar-28 16:42 232 2 gusting 8 28.3
2015-Mar-28 16:37 267 2 gusting 8 28.3
2015-Mar-28 16:32 266 3 gusting 7 28.3
2015-Mar-28 16:27 279 4 gusting 7 28.3
2015-Mar-28 16:22 243 4 gusting 8 28.3
2015-Mar-28 16:17 221 3 gusting 8 28.3
2015-Mar-28 16:12 269 3 gusting 6 28.3
2015-Mar-28 16:07 236 2 gusting 6 28.3
2015-Mar-28 16:02 263 3 gusting 6 28.3
2015-Mar-28 15:57 263 3 gusting 6 28.3
2015-Mar-28 15:52 280 1 gusting 6 28.3
2015-Mar-28 15:47 269 2 gusting 6 27.8
2015-Mar-28 15:42 242 3 gusting 7 27.8
2015-Mar-28 15:37 267 4 gusting 7 27.8
2015-Mar-28 15:32 273 4 gusting 6 27.8
2015-Mar-28 15:27 273 3 gusting 6 27.8
2015-Mar-28 15:22 259 2 gusting 6 27.8
2015-Mar-28 15:17 302 1 gusting 6 27.8
2015-Mar-28 15:12 257 1 gusting 7 27.8
2015-Mar-28 15:07 240 2 gusting 7 27.8
2015-Mar-28 15:02 265 2 gusting 6 27.8
2015-Mar-28 14:57 248 1 gusting 6 27.2
2015-Mar-28 14:52 275 1 gusting 6 27.2
2015-Mar-28 14:47 275 2 gusting 6 27.2
2015-Mar-28 14:42 266 2 gusting 6 27.2
2015-Mar-28 14:37 260 1 gusting 6 27.2
2015-Mar-28 14:32 248 0 gusting 6 27.2
2015-Mar-28 14:27 308 1 gusting 6 26.7
2015-Mar-28 14:22 305 3 gusting 4 26.7
2015-Mar-28 14:17 296 1 gusting 4 26.7
2015-Mar-28 14:12 248 0 gusting 4 26.7
2015-Mar-28 14:07 090 0 gusting 4 26.7
2015-Mar-28 14:02 093 0 gusting 5 26.7
2015-Mar-28 13:57 119 1 gusting 5 26.7
2015-Mar-28 13:52 119 1 gusting 2 26.7
2015-Mar-28 13:47 175 0 gusting 2 26.7
2015-Mar-28 13:42 291 0 gusting 4 26.1
2015-Mar-28 13:37 273 0 gusting 4 26.1
2015-Mar-28 13:32 266 0 gusting 5 26.1
2015-Mar-28 13:27 071 0 gusting 5 25.6
2015-Mar-28 13:22 071 1 gusting 3 25.6
2015-Mar-28 13:17 071 0 gusting 3 25.6
2015-Mar-28 13:12 124 25.6
2015-Mar-28 13:07 066 0 gusting 6 25.0
2015-Mar-28 13:02 066 2 gusting 6 25.0
2015-Mar-28 12:57 090 2 gusting 6 25.0
2015-Mar-28 12:52 192 0 gusting 5 25.6
2015-Mar-28 12:47 192 1 gusting 5 25.0
2015-Mar-28 12:42 163 1 gusting 4 25.0
2015-Mar-28 12:37 198 1 gusting 4 24.4
2015-Mar-28 12:32 202 0 gusting 5 24.4
2015-Mar-28 12:27 149 0 gusting 5 24.4
2015-Mar-28 12:22 149 1 gusting 5 23.9
2015-Mar-28 12:17 103 2 gusting 6 23.9
2015-Mar-28 12:12 092 1 gusting 6 23.9
2015-Mar-28 12:07 119 1 gusting 6 23.9
2015-Mar-28 12:02 121 2 gusting 6 23.3
2015-Mar-28 11:57 109 3 gusting 6 23.3
2015-Mar-28 11:52 115 3 gusting 6 23.3
2015-Mar-28 11:47 142 1 gusting 6 22.8
2015-Mar-28 11:42 091 1 gusting 6 22.8
2015-Mar-28 11:37 091 2 gusting 6 22.8
2015-Mar-28 11:32 098 2 gusting 6 22.2
2015-Mar-28 11:27 092 2 gusting 6 22.2
2015-Mar-28 11:22 073 3 gusting 6 22.2
2015-Mar-28 11:17 095 2 gusting 6 22.2
2015-Mar-28 11:12 107 1 gusting 6 21.7
2015-Mar-28 11:07 107 1 gusting 6 21.7
2015-Mar-28 11:02 085 1 gusting 6 21.7
2015-Mar-28 10:57 085 2 gusting 6 21.7
2015-Mar-28 10:52 109 2 gusting 6 21.1
2015-Mar-28 10:47 066 3 gusting 6 21.1
2015-Mar-28 10:42 113 2 gusting 6 20.6
2015-Mar-28 10:37 131 3 gusting 6 20.6
2015-Mar-28 10:32 086 3 gusting 6 20.6
2015-Mar-28 10:27 124 2 gusting 6 20.0
2015-Mar-28 10:22 104 1 gusting 6 20.0
2015-Mar-28 10:17 056 1 gusting 6 20.0
2015-Mar-28 10:12 041 2 gusting 6 19.4
2015-Mar-28 10:07 086 2 gusting 6 18.9
2015-Mar-28 10:02 074 2 gusting 6 18.9
2015-Mar-28 09:57 091 3 gusting 6 18.9
2015-Mar-28 09:52 116 2 gusting 4 18.3
2015-Mar-28 09:47 059 1 gusting 4 18.3
2015-Mar-28 09:42 067 2 gusting 5 18.3
2015-Mar-28 09:37 074 2 gusting 5 18.3
2015-Mar-28 09:32 082 2 gusting 4 18.3
2015-Mar-28 09:27 050 1 gusting 4 17.8
2015-Mar-28 09:22 088 0 gusting 4 17.8
2015-Mar-28 09:17 088 0 gusting 4 17.8
2015-Mar-28 09:12 065 0 gusting 3 17.8
2015-Mar-28 09:07 055 0 gusting 3 17.2
2015-Mar-28 09:02 055 0 gusting 4 16.7
2015-Mar-28 08:57 053 1 gusting 4 16.7
2015-Mar-28 08:52 053 2 gusting 4 16.7
2015-Mar-28 08:47 053 1 gusting 4 16.1
2015-Mar-28 08:42 16.1
2015-Mar-28 08:37 311 15.6
2015-Mar-28 08:32 311 15.0
2015-Mar-28 08:27 311 14.4
2015-Mar-28 08:22 311 14.4
2015-Mar-28 08:17 311 0 gusting 2 14.4
2015-Mar-28 08:12 311 0 gusting 3 13.9
2015-Mar-28 08:07 311 0 gusting 3 13.9
2015-Mar-28 08:02 313 0 gusting 1 13.9
2015-Mar-28 07:57 309 0 gusting 1 13.3
2015-Mar-28 07:52 309 13.3
2015-Mar-28 07:47 309 13.3
2015-Mar-28 07:42 309 12.8
2015-Mar-28 07:37 309 12.8
2015-Mar-28 07:32 309 12.2
2015-Mar-28 07:27 309 0 gusting 2 11.7
2015-Mar-28 07:22 309 0 gusting 0 11.7
2015-Mar-28 07:17 309 11.7
2015-Mar-28 07:12 309 11.7
2015-Mar-28 07:07 309 11.7
2015-Mar-28 07:02 309 11.7
2015-Mar-28 06:57 309 0 gusting 2 11.7
2015-Mar-28 06:52 309 11.7
2015-Mar-28 06:47 309 11.7
2015-Mar-28 06:42 309 11.1
2015-Mar-28 06:37 309 11.1
2015-Mar-28 06:32 309 11.1
2015-Mar-28 06:27 309 11.1
2015-Mar-28 06:22 309 11.1
2015-Mar-28 06:17 309 11.1
2015-Mar-28 06:12 309 0 gusting 2 11.1
2015-Mar-28 06:07 309 0 gusting 2 11.1
2015-Mar-28 06:02 309 0 11.1
2015-Mar-28 05:57 309 11.1
2015-Mar-28 05:52 309 11.1
2015-Mar-28 05:47 309 11.1
2015-Mar-28 05:42 309 0 gusting 3 11.1
2015-Mar-28 05:37 309 1 gusting 3 10.6
2015-Mar-28 05:32 309 1 gusting 2 10.6
2015-Mar-28 05:27 309 0 gusting 2 11.1
2015-Mar-28 05:22 309 11.1
2015-Mar-28 05:17 309 11.1
2015-Mar-28 05:12 309 11.7
2015-Mar-28 05:07 309 11.7
2015-Mar-28 05:02 309 11.7
2015-Mar-28 04:57 309 11.7
2015-Mar-28 04:52 309 0 gusting 2 11.7
2015-Mar-28 04:47 309 1 gusting 2 11.7
2015-Mar-28 04:42 309 1 gusting 3 11.7
2015-Mar-28 04:37 309 1 gusting 3 11.7
2015-Mar-28 04:32 309 2 gusting 3 11.7
2015-Mar-28 04:27 309 2 gusting 3 11.7
2015-Mar-28 04:22 323 2 gusting 4 11.7
2015-Mar-28 04:17 323 2 gusting 4 11.7
2015-Mar-28 04:12 323 1 gusting 4 12.2
2015-Mar-28 04:07 328 0 gusting 3 12.8
2015-Mar-28 04:02 169 12.8
2015-Mar-28 03:57 169 12.8
2015-Mar-28 03:52 169 13.3
2015-Mar-28 03:47 169 13.3
2015-Mar-28 03:42 169 13.3
2015-Mar-28 03:37 169 13.3
2015-Mar-28 03:32 169 13.3
2015-Mar-28 03:27 169 1 gusting 5 13.3
2015-Mar-28 03:22 169 2 gusting 5 13.3
2015-Mar-28 03:17 169 2 gusting 5 13.9
2015-Mar-28 03:12 169 1 gusting 0 13.9
2015-Mar-28 03:07 189 13.3
2015-Mar-28 03:02 189 13.3
2015-Mar-28 02:57 189 0 gusting 3 13.3
2015-Mar-28 02:52 189 0 gusting 2 13.3
2015-Mar-28 02:47 298 0 gusting 2 13.3
2015-Mar-28 02:42 314 13.3
2015-Mar-28 02:37 314 13.3
2015-Mar-28 02:32 314 13.3
2015-Mar-28 02:27 314 13.3
2015-Mar-28 02:22 314 13.3
2015-Mar-28 02:17 314 13.3
2015-Mar-28 02:12 314 13.9
2015-Mar-28 02:07 314 13.9
2015-Mar-28 02:02 314 13.9
2015-Mar-28 01:57 314 13.9
2015-Mar-28 01:52 314 13.3
2015-Mar-28 01:47 314 13.3
2015-Mar-28 01:42 314 1 gusting 2 13.3
2015-Mar-28 01:37 314 1 gusting 2 13.9
2015-Mar-28 01:32 314 1 gusting 1 13.9
2015-Mar-28 01:27 314 0 gusting 1 13.9
2015-Mar-28 01:22 314 13.9
2015-Mar-28 01:17 314 13.9
2015-Mar-28 01:12 314 0 gusting 2 13.9
2015-Mar-28 01:07 314 13.9
2015-Mar-28 01:02 314 13.9
2015-Mar-28 00:57 314 13.9
2015-Mar-28 00:52 314 13.9
2015-Mar-28 00:47 314 13.9
2015-Mar-28 00:42 314 13.9
2015-Mar-28 00:37 314 13.9
2015-Mar-28 00:32 314 14.4
2015-Mar-28 00:27 314 14.4
2015-Mar-28 00:22 314 0 gusting 4 14.4
2015-Mar-28 00:17 314 1 gusting 4 14.4
2015-Mar-28 00:12 317 2 gusting 3 14.4
2015-Mar-28 00:07 296 0 gusting 3 15.0
2015-Mar-28 00:02 294 15.0
2015-Mar-27 23:57 148 15.0
2015-Mar-27 23:52 148 15.0
2015-Mar-27 23:47 148 15.0
2015-Mar-27 23:42 148 0 gusting 6 15.0
2015-Mar-27 23:37 148 2 gusting 6 15.0
2015-Mar-27 23:32 146 3 gusting 10 15.0
2015-Mar-27 23:27 174 3 gusting 10 15.6
2015-Mar-27 23:22 161 4 gusting 10 15.6
2015-Mar-27 23:17 166 4 gusting 10 15.6
2015-Mar-27 23:12 120 2 gusting 7 16.1
2015-Mar-27 23:07 127 2 gusting 7 16.1
2015-Mar-27 23:02 161 3 gusting 7 16.1
2015-Mar-27 22:57 148 2 gusting 7 16.7
2015-Mar-27 22:52 216 16.7
2015-Mar-27 22:47 216 16.7
2015-Mar-27 22:42 216 16.7
2015-Mar-27 22:37 216 16.7
2015-Mar-27 22:32 216 16.7
2015-Mar-27 22:27 216 17.2
2015-Mar-27 22:22 216 17.2
2015-Mar-27 22:17 216 17.8
2015-Mar-27 22:12 216 17.8
2015-Mar-27 22:07 216 0 gusting 3 17.8
2015-Mar-27 22:02 216 0 gusting 3 17.8
2015-Mar-27 21:57 216 0 gusting 3 17.8
2015-Mar-27 21:52 216 1 gusting 3 17.8
2015-Mar-27 21:47 216 1 gusting 3 17.8
2015-Mar-27 21:42 216 1 gusting 4 17.8
2015-Mar-27 21:37 216 2 gusting 6 17.8
2015-Mar-27 21:32 216 3 gusting 7 18.3
2015-Mar-27 21:27 216 2 gusting 7 18.3
2015-Mar-27 21:22 146 0 gusting 1 18.3
2015-Mar-27 21:17 284 18.3
2015-Mar-27 21:12 284 18.3
2015-Mar-27 21:07 284 0 gusting 3 18.9
2015-Mar-27 21:02 284 0 gusting 3 18.9
2015-Mar-27 20:57 286 0 gusting 3 18.9
2015-Mar-27 20:52 254 19.4
2015-Mar-27 20:47 245 0 gusting 4 19.4
2015-Mar-27 20:42 245 0 gusting 1 19.4
2015-Mar-27 20:37 079 19.4
2015-Mar-27 20:32 079 19.4
2015-Mar-27 20:27 079 19.4
2015-Mar-27 20:22 079 19.4
2015-Mar-27 20:17 079 0 gusting 7 19.4
2015-Mar-27 20:12 079 1 gusting 7 19.4
2015-Mar-27 20:07 294 19.4
2015-Mar-27 20:02 294 20.0
2015-Mar-27 19:57 294 0 gusting 2 20.0
2015-Mar-27 19:52 294 0 gusting 4 20.0
2015-Mar-27 19:47 294 0 gusting 4 20.6
2015-Mar-27 19:42 294 1 gusting 4 20.6
2015-Mar-27 19:37 294 2 gusting 4 20.6
2015-Mar-27 19:32 269 2 gusting 4 20.6
2015-Mar-27 19:27 269 2 gusting 4 20.6
2015-Mar-27 19:22 271 2 gusting 4 20.6
2015-Mar-27 19:17 315 1 gusting 4 21.1
2015-Mar-27 19:12 263 1 gusting 3 21.1
2015-Mar-27 19:07 276 1 gusting 2 21.1
2015-Mar-27 19:02 276 0 gusting 2 21.1
2015-Mar-27 18:57 275 21.7
2015-Mar-27 18:52 275 21.7
2015-Mar-27 18:47 275 0 gusting 5 22.2
2015-Mar-27 18:42 275 1 gusting 5 22.2
2015-Mar-27 18:37 275 2 gusting 5 22.8
2015-Mar-27 18:32 259 1 gusting 5 22.8
2015-Mar-27 18:27 246 1 gusting 5 22.8
2015-Mar-27 18:22 286 0 gusting 6 23.3
2015-Mar-27 18:17 287 23.3
2015-Mar-27 18:12 287 1 gusting 6 23.3
2015-Mar-27 18:07 287 3 gusting 6 23.3
2015-Mar-27 18:02 267 4 gusting 8 23.3
2015-Mar-27 17:57 266 4 gusting 8 23.3
2015-Mar-27 17:52 264 3 gusting 8 23.3
2015-Mar-27 17:47 281 4 gusting 8 23.3
2015-Mar-27 17:42 238 5 gusting 8 23.3
2015-Mar-27 17:37 273 4 gusting 8 23.3
2015-Mar-27 17:32 273 3 gusting 8 23.9
2015-Mar-27 17:27 263 3 gusting 8 23.9
2015-Mar-27 17:22 256 3 gusting 9 23.9
2015-Mar-27 17:17 283 4 gusting 9 23.3
2015-Mar-27 17:12 281 5 gusting 9 23.3
2015-Mar-27 17:07 260 4 gusting 9 23.9
2015-Mar-27 17:02 274 4 gusting 8 23.9
2015-Mar-27 16:57 252 4 gusting 8 23.9
2015-Mar-27 16:52 239 4 gusting 8 23.9
2015-Mar-27 16:47 258 3 gusting 8 23.9
2015-Mar-27 16:42 279 3 gusting 8 23.9
2015-Mar-27 16:37 275 3 gusting 8 23.9
2015-Mar-27 16:32 246 2 gusting 6 23.9
2015-Mar-27 16:27 284 2 gusting 6 23.9
2015-Mar-27 16:22 250 3 gusting 7 23.3
2015-Mar-27 16:17 265 3 gusting 7 23.3
2015-Mar-27 16:12 252 4 gusting 7 23.3
2015-Mar-27 16:07 259 4 gusting 9 23.3
2015-Mar-27 16:02 262 4 gusting 7 23.3
2015-Mar-27 15:57 271 4 gusting 7 23.3
2015-Mar-27 15:52 217 3 gusting 7 23.3
2015-Mar-27 15:47 250 4 gusting 7 23.3
2015-Mar-27 15:42 241 3 gusting 7 23.3
2015-Mar-27 15:37 270 1 gusting 9 23.3
2015-Mar-27 15:32 265 3 gusting 9 22.8
2015-Mar-27 15:27 255 4 gusting 9 22.8
2015-Mar-27 15:22 286 2 gusting 6 22.8
2015-Mar-27 15:17 259 2 gusting 6 22.8
2015-Mar-27 15:12 223 2 gusting 7 22.8
2015-Mar-27 15:07 217 4 gusting 7 22.8
2015-Mar-27 15:02 282 4 gusting 7 22.8
2015-Mar-27 14:57 269 2 gusting 7 22.8
2015-Mar-27 14:52 300 2 gusting 8 22.8
2015-Mar-27 14:47 286 2 gusting 8 22.2
2015-Mar-27 14:42 287 2 gusting 8 22.2
2015-Mar-27 14:37 260 2 gusting 6 22.8
2015-Mar-27 14:32 318 2 gusting 6 22.8
2015-Mar-27 14:27 348 1 gusting 6 22.8
2015-Mar-27 14:22 198 1 gusting 6 22.2
2015-Mar-27 14:17 198 1 gusting 6 22.2
2015-Mar-27 14:12 332 0 gusting 7 22.2
2015-Mar-27 14:07 010 1 gusting 7 21.7
2015-Mar-27 14:02 21.7
2015-Mar-27 13:57 019 2 gusting 6 21.7
2015-Mar-27 13:52 285 2 gusting 4 21.7
2015-Mar-27 13:47 296 0 gusting 4 21.7
2015-Mar-27 13:42 307 0 gusting 3 21.7
2015-Mar-27 13:37 348 0 gusting 3 21.1
2015-Mar-27 13:32 196 0 gusting 6 21.1
2015-Mar-27 13:27 208 1 gusting 6 21.1
2015-Mar-27 13:22 273 2 gusting 6 20.6
2015-Mar-27 13:17 324 2 gusting 6 20.6
2015-Mar-27 13:12 345 2 gusting 6 20.6
2015-Mar-27 13:07 237 1 gusting 6 20.6
2015-Mar-27 13:02 244 0 gusting 6 20.6
2015-Mar-27 12:57 030 1 gusting 6 20.6
2015-Mar-27 12:52 348 3 gusting 6 20.0
2015-Mar-27 12:47 333 2 gusting 6 20.0
2015-Mar-27 12:42 292 1 gusting 6 20.0
2015-Mar-27 12:37 254 1 gusting 5 20.0
2015-Mar-27 12:32 304 0 gusting 6 20.0
2015-Mar-27 12:27 346 1 gusting 6 19.4
2015-Mar-27 12:22 298 2 gusting 6 19.4
2015-Mar-27 12:17 281 2 gusting 4 19.4
2015-Mar-27 12:12 046 1 gusting 4 19.4
2015-Mar-27 12:07 313 1 gusting 6 19.4
2015-Mar-27 12:02 248 1 gusting 6 19.4